EWG14PJ LEMG-EDDH

Flight info

Callsign EWG14PJ
Flight time 3h 3m
Altitude 34000
Route BLN N865 VTB N867 RBO DCT OSTIX N867 DGO L176 LUSEM DCT LULUT DCT ADABI DCT BOKNO UN858 VANAD UN874 ARSAF DCT EGOZE DCT CMB DCT VEKIN DCT ADUTO N873 VICOT/N0458F350 DCT PIPQU DCT PABCO M105 RIBSO RIBSO7A
Aircraft A21N/M-SDE2E3FGHIRWXY/LB1

Departure

Time 2026-04-20 14:03
Airport Málaga-Costa del Sol Airport (LEMG)

Arrival

Time 2026-04-20 17:06
Airport Hamburg Helmut Schmidt Airport (EDDH)
Time Latitude Longitude Altitude Speed Heading
2026-04-20 13:37 36.67688 -4.49503 36 ft 0 kts 41°
2026-04-20 13:39 36.67687 -4.49503 41 ft 0 kts 41°
2026-04-20 13:40 36.67686 -4.49505 35 ft 0 kts 41°
2026-04-20 13:54 36.67684 -4.49507 35 ft 2 kts 41°
2026-04-20 13:54 36.67665 -4.49528 33 ft 4 kts 41°
2026-04-20 13:55 36.67645 -4.49547 34 ft 4 kts 16°
2026-04-20 13:55 36.67622 -4.49546 34 ft 4 kts 327°
2026-04-20 13:55 36.67611 -4.49535 33 ft 1 kts 313°
2026-04-20 13:55 36.67610 -4.49534 33 ft 0 kts 313°
2026-04-20 13:57 36.67612 -4.49537 33 ft 2 kts 313°
2026-04-20 13:57 36.67627 -4.49557 31 ft 5 kts 313°
2026-04-20 13:58 36.67631 -4.49601 35 ft 6 kts 240°
2026-04-20 13:58 36.67586 -4.49643 35 ft 10 kts 217°
2026-04-20 13:58 36.67568 -4.49722 33 ft 11 kts 295°
2026-04-20 13:58 36.67631 -4.49810 35 ft 17 kts 311°
2026-04-20 13:59 36.67728 -4.49945 35 ft 23 kts 311°
2026-04-20 13:59 36.67840 -4.50103 35 ft 25 kts 311°
2026-04-20 13:59 36.67958 -4.50269 35 ft 27 kts 311°
2026-04-20 13:59 36.68084 -4.50446 35 ft 28 kts 311°
2026-04-20 14:00 36.68215 -4.50628 35 ft 29 kts 312°
2026-04-20 14:00 36.68349 -4.50816 35 ft 28 kts 311°
2026-04-20 14:00 36.68446 -4.50953 35 ft 19 kts 312°
2026-04-20 14:00 36.68476 -4.50995 36 ft 0 kts 311°
2026-04-20 14:01 36.68477 -4.50997 36 ft 2 kts 310°
2026-04-20 14:01 36.68505 -4.51067 36 ft 12 kts 277°
2026-04-20 14:01 36.68444 -4.51129 35 ft 12 kts 192°
2026-04-20 14:02 36.68361 -4.51128 37 ft 13 kts 146°
2026-04-20 14:02 36.68268 -4.50999 36 ft 44 kts 131°
2026-04-20 14:02 36.67897 -4.50480 35 ft 114 kts 131°
2026-04-20 14:02 36.67247 -4.49571 39 ft 165 kts 131°
2026-04-20 14:03 36.66463 -4.48490 682 ft 164 kts 132°
2026-04-20 14:03 36.65679 -4.47457 1508 ft 166 kts 133°
2026-04-20 14:03 36.64845 -4.46387 2209 ft 177 kts 133°
2026-04-20 14:03 36.63964 -4.45212 2618 ft 196 kts 130°
2026-04-20 14:04 36.63043 -4.43877 3019 ft 214 kts 129°
2026-04-20 14:04 36.62051 -4.42417 3520 ft 225 kts 130°
2026-04-20 14:04 36.61017 -4.40905 4132 ft 233 kts 130°
2026-04-20 14:04 36.60092 -4.39191 4715 ft 244 kts 115°
2026-04-20 14:05 36.59591 -4.37148 5337 ft 253 kts 101°
2026-04-20 14:05 36.59261 -4.34982 6117 ft 257 kts 102°
2026-04-20 14:05 36.58901 -4.32773 6850 ft 261 kts 102°
2026-04-20 14:05 36.58531 -4.30480 7261 ft 281 kts 97°
2026-04-20 14:06 36.58737 -4.28029 7799 ft 291 kts 69°
2026-04-20 14:06 36.59759 -4.25895 8480 ft 294 kts 51°
2026-04-20 14:06 36.61043 -4.23877 9211 ft 298 kts 50°
2026-04-20 14:06 36.62414 -4.21924 9963 ft 300 kts 39°
2026-04-20 14:07 36.64156 -4.20442 10400 ft 311 kts 22°
2026-04-20 14:07 36.66231 -4.19530 10593 ft 331 kts 15°
2026-04-20 14:07 36.68494 -4.18644 10889 ft 347 kts 16°
2026-04-20 14:07 36.70814 -4.17717 11511 ft 351 kts 16°
2026-04-20 14:08 36.73161 -4.16781 12194 ft 354 kts 16°
2026-04-20 14:08 36.75505 -4.15872 12867 ft 358 kts 16°
2026-04-20 14:08 36.77911 -4.14941 13528 ft 362 kts 16°
2026-04-20 14:08 36.80331 -4.14001 14120 ft 366 kts 16°
2026-04-20 14:09 36.82771 -4.13049 14701 ft 370 kts 16°
2026-04-20 14:09 36.85246 -4.12080 15270 ft 373 kts 16°
2026-04-20 14:09 36.87710 -4.11114 15837 ft 377 kts 16°
2026-04-20 14:09 36.90230 -4.10124 16403 ft 381 kts 16°
2026-04-20 14:10 36.92780 -4.09124 16950 ft 385 kts 16°
2026-04-20 14:10 36.95354 -4.08115 17493 ft 389 kts 16°
2026-04-20 14:10 36.97951 -4.07096 18062 ft 392 kts 16°
2026-04-20 14:10 37.00567 -4.06068 18552 ft 396 kts 16°
2026-04-20 14:11 37.03172 -4.05045 19039 ft 398 kts 16°
2026-04-20 14:11 37.05831 -4.04004 19530 ft 400 kts 16°
2026-04-20 14:11 37.08497 -4.02957 20021 ft 403 kts 16°
2026-04-20 14:11 37.11191 -4.01898 20492 ft 405 kts 16°
2026-04-20 14:12 37.13891 -4.00836 20949 ft 408 kts 16°
2026-04-20 14:12 37.16611 -3.99766 21396 ft 411 kts 16°
2026-04-20 14:12 37.19358 -3.98688 21857 ft 413 kts 16°
2026-04-20 14:12 37.22093 -3.97654 22299 ft 416 kts 15°
2026-04-20 14:13 37.24877 -3.96625 22740 ft 418 kts 15°
2026-04-20 14:13 37.27688 -3.95588 23169 ft 421 kts 15°
2026-04-20 14:13 37.30508 -3.94543 23596 ft 424 kts 15°
2026-04-20 14:13 37.33348 -3.93485 23965 ft 426 kts 15°
2026-04-20 14:14 37.36193 -3.92421 24317 ft 428 kts 15°
2026-04-20 14:14 37.39025 -3.91360 24669 ft 430 kts 15°
2026-04-20 14:14 37.41905 -3.90279 25006 ft 433 kts 15°
2026-04-20 14:14 37.44805 -3.89191 25342 ft 435 kts 15°
2026-04-20 14:15 37.47711 -3.88099 25657 ft 437 kts 15°
2026-04-20 14:15 37.50635 -3.87000 25982 ft 440 kts 15°
2026-04-20 14:15 37.53587 -3.85888 26286 ft 442 kts 15°
2026-04-20 14:15 37.56545 -3.84773 26596 ft 444 kts 15°
2026-04-20 14:16 37.59495 -3.83661 26915 ft 446 kts 15°
2026-04-20 14:16 37.62481 -3.82536 27192 ft 449 kts 15°
2026-04-20 14:16 37.65484 -3.81402 27491 ft 451 kts 15°
2026-04-20 14:16 37.68503 -3.80262 27751 ft 453 kts 15°
2026-04-20 14:17 37.71497 -3.79130 28058 ft 454 kts 15°
2026-04-20 14:17 37.74535 -3.77981 28311 ft 456 kts 15°
2026-04-20 14:17 37.77587 -3.76824 28563 ft 458 kts 15°
2026-04-20 14:17 37.80652 -3.75663 28810 ft 460 kts 15°
2026-04-20 14:18 37.83730 -3.74495 29051 ft 462 kts 15°
2026-04-20 14:18 37.86776 -3.73338 29313 ft 463 kts 15°
2026-04-20 14:18 37.89854 -3.72168 29560 ft 464 kts 15°
2026-04-20 14:18 37.92973 -3.70982 29807 ft 466 kts 15°
2026-04-20 14:19 37.96095 -3.69794 30051 ft 467 kts 15°
2026-04-20 14:19 37.99214 -3.68605 30276 ft 468 kts 15°
2026-04-20 14:19 38.02331 -3.67416 30468 ft 469 kts 15°
2026-04-20 14:19 38.05437 -3.66230 30680 ft 471 kts 15°
2026-04-20 14:20 38.08576 -3.65031 30879 ft 472 kts 15°
2026-04-20 14:20 38.11726 -3.63850 31125 ft 472 kts 13°
2026-04-20 14:20 38.14930 -3.62907 31380 ft 471 kts
2026-04-20 14:20 38.18170 -3.62253 31621 ft 470 kts
2026-04-20 14:21 38.21431 -3.61871 31860 ft 469 kts
2026-04-20 14:21 38.24688 -3.61565 32101 ft 470 kts
2026-04-20 14:21 38.27915 -3.61254 32323 ft 470 kts
2026-04-20 14:21 38.31191 -3.60935 32552 ft 470 kts
2026-04-20 14:22 38.34457 -3.60617 32765 ft 471 kts
2026-04-20 14:22 38.37722 -3.60300 32971 ft 471 kts
2026-04-20 14:22 38.40992 -3.59983 33164 ft 471 kts
2026-04-20 14:22 38.44262 -3.59666 33363 ft 471 kts
2026-04-20 14:23 38.47535 -3.59347 33570 ft 471 kts
2026-04-20 14:23 38.50809 -3.59029 33763 ft 471 kts
2026-04-20 14:23 38.52983 -3.58818 33879 ft 471 kts
2026-04-20 14:23 38.57315 -3.58395 33937 ft 471 kts
2026-04-20 14:24 38.63847 -3.57758 33935 ft 470 kts
2026-04-20 14:24 38.69277 -3.57228 33935 ft 469 kts
2026-04-20 14:25 38.75794 -3.56590 33937 ft 469 kts
2026-04-20 14:25 38.82297 -3.55953 33936 ft 468 kts
2026-04-20 14:26 38.88752 -3.55319 33940 ft 467 kts
2026-04-20 14:26 38.95271 -3.54679 33937 ft 467 kts
2026-04-20 14:27 39.01728 -3.54043 33942 ft 466 kts
2026-04-20 14:27 39.08195 -3.53400 33938 ft 466 kts
2026-04-20 14:28 39.14662 -3.52756 33939 ft 465 kts
2026-04-20 14:28 39.21095 -3.52115 33949 ft 465 kts
2026-04-20 14:29 39.27555 -3.51470 33948 ft 464 kts
2026-04-20 14:29 39.33958 -3.50831 33951 ft 463 kts
2026-04-20 14:30 39.40391 -3.50186 33953 ft 462 kts
2026-04-20 14:30 39.46827 -3.49540 33948 ft 462 kts
2026-04-20 14:31 39.53187 -3.48901 33941 ft 461 kts
2026-04-20 14:31 39.59592 -3.48256 33944 ft 460 kts
2026-04-20 14:32 39.65977 -3.47617 33939 ft 460 kts
2026-04-20 14:32 39.72361 -3.46977 33942 ft 459 kts
2026-04-20 14:33 39.78701 -3.46254 33941 ft 460 kts
2026-04-20 14:33 39.85061 -3.44997 33941 ft 461 kts
2026-04-20 14:34 39.91379 -3.43741 33947 ft 461 kts
2026-04-20 14:34 39.97737 -3.42472 33941 ft 461 kts
2026-04-20 14:35 40.04101 -3.41195 33944 ft 462 kts
2026-04-20 14:35 40.10423 -3.39923 33947 ft 462 kts
2026-04-20 14:36 40.16789 -3.38640 33948 ft 462 kts
2026-04-20 14:36 40.23164 -3.37353 33962 ft 463 kts
2026-04-20 14:37 40.29495 -3.36072 33968 ft 463 kts
2026-04-20 14:37 40.35875 -3.34779 33977 ft 463 kts
2026-04-20 14:38 40.42259 -3.33483 33978 ft 463 kts
2026-04-20 14:38 40.48599 -3.32194 33975 ft 463 kts
2026-04-20 14:39 40.54975 -3.30895 33970 ft 463 kts
2026-04-20 14:39 40.61363 -3.29591 33960 ft 463 kts
2026-04-20 14:40 40.67742 -3.28286 33959 ft 463 kts
2026-04-20 14:40 40.74082 -3.26987 33959 ft 463 kts
2026-04-20 14:41 40.80459 -3.25678 33955 ft 463 kts
2026-04-20 14:41 40.86830 -3.24364 33962 ft 463 kts
2026-04-20 14:42 40.93165 -3.22951 33969 ft 463 kts
2026-04-20 14:42 40.99491 -3.21517 33970 ft 463 kts
2026-04-20 14:43 41.05866 -3.20083 33974 ft 462 kts
2026-04-20 14:43 41.12165 -3.18669 33966 ft 461 kts
2026-04-20 14:44 41.18487 -3.17245 33971 ft 460 kts
2026-04-20 14:44 41.24814 -3.15817 33964 ft 459 kts
2026-04-20 14:45 41.31084 -3.14399 33960 ft 458 kts
2026-04-20 14:45 41.37343 -3.12982 33954 ft 457 kts
2026-04-20 14:46 41.43625 -3.11556 33949 ft 456 kts
2026-04-20 14:46 41.49878 -3.10133 33940 ft 455 kts
2026-04-20 14:47 41.56094 -3.08722 33935 ft 454 kts
2026-04-20 14:48 41.65448 -3.06599 33928 ft 453 kts
2026-04-20 14:48 41.71681 -3.05180 33930 ft 453 kts
2026-04-20 14:49 41.77869 -3.03763 33927 ft 453 kts
2026-04-20 14:49 41.84092 -3.02329 33925 ft 453 kts
2026-04-20 14:50 41.90314 -3.00892 33935 ft 454 kts
2026-04-20 14:50 41.96515 -2.99459 33937 ft 453 kts
2026-04-20 14:51 42.02748 -2.98015 33944 ft 453 kts
2026-04-20 14:51 42.08949 -2.96576 33947 ft 454 kts
2026-04-20 14:52 42.15182 -2.95126 33947 ft 454 kts
2026-04-20 14:52 42.21379 -2.93682 33946 ft 454 kts
2026-04-20 14:53 42.27608 -2.92227 33941 ft 453 kts
2026-04-20 14:53 42.33843 -2.90770 33931 ft 453 kts
2026-04-20 14:54 42.40033 -2.89316 33918 ft 453 kts
2026-04-20 14:54 42.43095 -2.88231 33912 ft 457 kts 17°
2026-04-20 14:54 42.45982 -2.86346 33915 ft 463 kts 30°
2026-04-20 14:55 42.50993 -2.80839 33903 ft 466 kts 38°
2026-04-20 14:55 42.55907 -2.75060 33912 ft 467 kts 38°
2026-04-20 14:56 42.60803 -2.69322 33918 ft 467 kts 38°
2026-04-20 14:56 42.65733 -2.63547 33928 ft 468 kts 38°
2026-04-20 14:57 42.70673 -2.57751 33937 ft 469 kts 38°
2026-04-20 14:57 42.75589 -2.51970 33931 ft 470 kts 38°
2026-04-20 14:58 42.80547 -2.46127 33943 ft 470 kts 38°
2026-04-20 14:58 42.85480 -2.40300 33950 ft 471 kts 38°
2026-04-20 14:59 42.90428 -2.34442 33956 ft 471 kts 38°
2026-04-20 14:59 42.95377 -2.28570 33945 ft 471 kts 38°
2026-04-20 15:00 43.00293 -2.22723 33951 ft 470 kts 38°
2026-04-20 15:00 43.05229 -2.16838 33940 ft 470 kts 38°
2026-04-20 15:01 43.10160 -2.10947 33939 ft 470 kts 38°
2026-04-20 15:01 43.15088 -2.05045 33940 ft 470 kts 38°
2026-04-20 15:02 43.20002 -1.99146 33935 ft 470 kts 38°
2026-04-20 15:02 43.24905 -1.93248 33934 ft 471 kts 38°
2026-04-20 15:03 43.29839 -1.87299 33940 ft 471 kts 38°
2026-04-20 15:03 43.34772 -1.81337 33939 ft 471 kts 38°
2026-04-20 15:04 43.39923 -1.75862 33941 ft 468 kts 31°
2026-04-20 15:04 43.45382 -1.70928 33934 ft 468 kts 30°
2026-04-20 15:05 43.50810 -1.66029 33910 ft 468 kts 30°
2026-04-20 15:05 43.56227 -1.61123 33911 ft 468 kts 30°
2026-04-20 15:06 43.61681 -1.56172 33921 ft 468 kts 30°
2026-04-20 15:06 43.67123 -1.51222 33925 ft 468 kts 30°
2026-04-20 15:07 43.72523 -1.46298 33931 ft 468 kts 30°
2026-04-20 15:07 43.77966 -1.41325 33931 ft 467 kts 30°
2026-04-20 15:08 43.83365 -1.36381 33939 ft 467 kts 30°
2026-04-20 15:08 43.88801 -1.31392 33938 ft 467 kts 30°
2026-04-20 15:09 43.94188 -1.26436 33942 ft 467 kts 30°
2026-04-20 15:09 43.99616 -1.21433 33937 ft 466 kts 30°
2026-04-20 15:10 44.04985 -1.16473 33937 ft 466 kts 30°
2026-04-20 15:10 44.10386 -1.11472 33946 ft 465 kts 30°
2026-04-20 15:11 44.15772 -1.06472 33946 ft 464 kts 30°
2026-04-20 15:11 44.21114 -1.01504 33939 ft 464 kts 30°
2026-04-20 15:12 44.25579 -0.97343 33935 ft 463 kts 30°
2026-04-20 15:12 44.31823 -0.91511 33931 ft 463 kts 30°
2026-04-20 15:13 44.36273 -0.87354 33931 ft 462 kts 28°
2026-04-20 15:13 44.41837 -0.82902 33928 ft 458 kts 22°
2026-04-20 15:14 44.47593 -0.79254 33911 ft 455 kts 19°
2026-04-20 15:14 44.53429 -0.75707 33914 ft 456 kts 19°
2026-04-20 15:15 44.59250 -0.72152 33930 ft 456 kts 19°
2026-04-20 15:15 44.65061 -0.68591 33931 ft 456 kts 19°
2026-04-20 15:16 44.70858 -0.65030 33932 ft 457 kts 19°
2026-04-20 15:16 44.76697 -0.61436 33936 ft 457 kts 19°
2026-04-20 15:17 44.82502 -0.57854 33941 ft 457 kts 19°
2026-04-20 15:17 44.88339 -0.54245 33945 ft 457 kts 19°
2026-04-20 15:18 44.94140 -0.50650 33946 ft 458 kts 19°
2026-04-20 15:18 44.99990 -0.47017 33951 ft 458 kts 19°
2026-04-20 15:19 45.05792 -0.43405 33960 ft 458 kts 19°
2026-04-20 15:19 45.11613 -0.39772 33959 ft 458 kts 19°
2026-04-20 15:20 45.17455 -0.36118 33965 ft 458 kts 18°
2026-04-20 15:20 45.23284 -0.32464 33961 ft 457 kts 18°
2026-04-20 15:21 45.29083 -0.28822 33963 ft 457 kts 18°
2026-04-20 15:21 45.34907 -0.25156 33965 ft 457 kts 18°
2026-04-20 15:22 45.40721 -0.21487 33964 ft 456 kts 18°
2026-04-20 15:22 45.46492 -0.17838 33968 ft 456 kts 18°
2026-04-20 15:23 45.52299 -0.14157 33968 ft 456 kts 18°
2026-04-20 15:23 45.58206 -0.11060 33963 ft 449 kts 11°
2026-04-20 15:24 45.64143 -0.08447 33964 ft 449 kts 11°
2026-04-20 15:24 45.70123 -0.05809 33964 ft 449 kts 11°
2026-04-20 15:25 45.76103 -0.03166 33973 ft 449 kts 11°
2026-04-20 15:25 45.82045 -0.00532 33980 ft 448 kts 11°
2026-04-20 15:26 45.88012 0.02120 33975 ft 448 kts 11°
2026-04-20 15:26 45.93941 0.04763 33978 ft 448 kts 11°
2026-04-20 15:27 45.99898 0.07423 33986 ft 448 kts 11°
2026-04-20 15:27 46.05865 0.10093 33992 ft 448 kts 11°
2026-04-20 15:28 46.11785 0.12749 34002 ft 448 kts 11°
2026-04-20 15:28 46.17759 0.15434 34010 ft 448 kts 11°
2026-04-20 15:29 46.23720 0.18120 34014 ft 448 kts 11°
2026-04-20 15:29 46.29685 0.20815 34017 ft 448 kts 11°
2026-04-20 15:30 46.35651 0.23516 34021 ft 448 kts 11°
2026-04-20 15:30 46.41574 0.26202 34021 ft 448 kts 11°
2026-04-20 15:31 46.47538 0.28915 34023 ft 448 kts 11°
2026-04-20 15:31 46.53503 0.31635 34022 ft 448 kts 11°
2026-04-20 15:32 46.59427 0.34341 34021 ft 448 kts 11°
2026-04-20 15:32 46.65387 0.37070 34023 ft 448 kts 11°
2026-04-20 15:33 46.71348 0.39806 34026 ft 449 kts 11°
2026-04-20 15:33 46.77283 0.42537 34031 ft 449 kts 11°
2026-04-20 15:34 46.83253 0.45289 34045 ft 448 kts 11°
2026-04-20 15:34 46.89171 0.48023 34048 ft 448 kts 11°
2026-04-20 15:35 46.95134 0.50785 34052 ft 449 kts 11°
2026-04-20 15:35 47.01100 0.53556 34059 ft 449 kts 11°
2026-04-20 15:36 47.07025 0.56313 34060 ft 449 kts 11°
2026-04-20 15:36 47.12989 0.59096 34074 ft 449 kts 11°
2026-04-20 15:37 47.18926 0.61872 34080 ft 449 kts 11°
2026-04-20 15:37 47.24887 0.64668 34081 ft 449 kts 11°
2026-04-20 15:38 47.30853 0.67472 34081 ft 449 kts 11°
2026-04-20 15:38 47.36765 0.70257 34080 ft 449 kts 11°
2026-04-20 15:39 47.42720 0.73070 34077 ft 448 kts 11°
2026-04-20 15:39 47.48663 0.75885 34077 ft 448 kts 11°
2026-04-20 15:40 47.54616 0.78712 34080 ft 448 kts 11°
2026-04-20 15:40 47.60517 0.81521 34086 ft 448 kts 11°
2026-04-20 15:41 47.66456 0.84353 34094 ft 447 kts 11°
2026-04-20 15:41 47.72378 0.87184 34098 ft 447 kts 11°
2026-04-20 15:42 47.78263 0.90003 34104 ft 446 kts 10°
2026-04-20 15:42 47.84185 0.92847 34109 ft 445 kts 10°
2026-04-20 15:43 47.90052 0.95671 34111 ft 444 kts 10°
2026-04-20 15:43 47.95953 0.98517 34100 ft 444 kts 10°
2026-04-20 15:44 48.01831 1.01358 34102 ft 443 kts 10°
2026-04-20 15:44 48.07663 1.04184 34101 ft 442 kts 10°
2026-04-20 15:45 48.13532 1.07034 34101 ft 442 kts 10°
2026-04-20 15:45 48.19353 1.09864 34094 ft 441 kts 10°
2026-04-20 15:46 48.25200 1.12714 34093 ft 441 kts 11°
2026-04-20 15:46 48.31019 1.15559 34097 ft 441 kts 11°
2026-04-20 15:47 48.36877 1.18430 34100 ft 442 kts 11°
2026-04-20 15:47 48.42733 1.21307 34103 ft 442 kts 11°
2026-04-20 15:48 48.48542 1.24169 34108 ft 443 kts 11°
2026-04-20 15:48 48.54400 1.27063 34112 ft 443 kts 12°
2026-04-20 15:49 48.60287 1.29978 34121 ft 444 kts 12°
2026-04-20 15:49 48.66173 1.32900 34131 ft 445 kts 12°
2026-04-20 15:50 48.72026 1.35814 34139 ft 446 kts 12°
2026-04-20 15:50 48.77932 1.38761 34152 ft 446 kts 12°
2026-04-20 15:51 48.83845 1.41719 34156 ft 446 kts 13°
2026-04-20 15:51 48.89720 1.44664 34167 ft 446 kts 13°
2026-04-20 15:52 48.95544 1.48066 34176 ft 453 kts 23°
2026-04-20 15:52 49.00614 1.53854 34162 ft 466 kts 41°
2026-04-20 15:53 49.07111 1.65003 34165 ft 467 kts 43°
2026-04-20 15:53 49.11400 1.72371 34165 ft 467 kts 43°
2026-04-20 15:54 49.15723 1.79815 34166 ft 467 kts 43°
2026-04-20 15:54 49.20023 1.87244 34161 ft 466 kts 43°
2026-04-20 15:55 49.24315 1.94681 34157 ft 466 kts 43°
2026-04-20 15:55 49.28576 2.02086 34172 ft 465 kts 43°
2026-04-20 15:56 49.32856 2.09544 34174 ft 465 kts 43°
2026-04-20 15:56 49.37135 2.17021 34175 ft 465 kts 43°
2026-04-20 15:57 49.41384 2.24467 34177 ft 465 kts 43°
2026-04-20 15:57 49.45654 2.31972 34174 ft 465 kts 43°
2026-04-20 15:58 49.49909 2.39473 34174 ft 466 kts 42°
2026-04-20 15:58 49.54268 2.46749 34171 ft 461 kts 36°
2026-04-20 15:59 49.59244 2.52805 34165 ft 452 kts 26°
2026-04-20 15:59 49.64564 2.57935 34164 ft 451 kts 25°
2026-04-20 16:00 49.69868 2.63062 34168 ft 452 kts 25°
2026-04-20 16:00 49.75178 2.68223 34174 ft 452 kts 25°
2026-04-20 16:01 49.79625 2.72557 34179 ft 453 kts 25°
2026-04-20 16:01 49.84969 2.77775 34182 ft 454 kts 25°
2026-04-20 16:02 49.90336 2.83031 34187 ft 455 kts 25°
2026-04-20 16:02 49.95681 2.88278 34180 ft 456 kts 25°
2026-04-20 16:03 50.01064 2.93578 34184 ft 458 kts 25°
2026-04-20 16:03 50.06411 2.98857 34180 ft 459 kts 25°
2026-04-20 16:04 50.11816 3.04206 34183 ft 460 kts 25°
2026-04-20 16:04 50.17235 3.09585 34178 ft 461 kts 25°
2026-04-20 16:05 50.22677 3.14743 34190 ft 458 kts 20°
2026-04-20 16:05 50.28415 3.19074 34193 ft 455 kts 16°
2026-04-20 16:06 50.34173 3.23101 34197 ft 456 kts 17°
2026-04-20 16:06 50.39994 3.27191 34212 ft 457 kts 17°
2026-04-20 16:07 50.45722 3.31509 34211 ft 461 kts 19°
2026-04-20 16:07 50.51458 3.36087 34217 ft 461 kts 19°
2026-04-20 16:08 50.57274 3.40270 34218 ft 458 kts 15°
2026-04-20 16:08 50.63110 3.44182 34219 ft 458 kts 16°
2026-04-20 16:09 50.68971 3.48189 34223 ft 459 kts 16°
2026-04-20 16:09 50.74832 3.52244 34220 ft 458 kts 16°
2026-04-20 16:10 50.80642 3.56280 34220 ft 458 kts 17°
2026-04-20 16:10 50.86494 3.60353 34222 ft 458 kts 17°
2026-04-20 16:11 50.92291 3.64401 34216 ft 457 kts 17°
2026-04-20 16:11 50.98106 3.68565 34223 ft 457 kts 18°
2026-04-20 16:12 51.03857 3.72717 34209 ft 456 kts 18°
2026-04-20 16:12 51.09647 3.76895 34208 ft 455 kts 18°
2026-04-20 16:13 51.15386 3.81042 34207 ft 454 kts 18°
2026-04-20 16:13 51.21154 3.85223 34204 ft 454 kts 18°
2026-04-20 16:14 51.26870 3.89383 34199 ft 454 kts 19°
2026-04-20 16:14 51.32615 3.93588 34204 ft 453 kts 19°
2026-04-20 16:15 51.38363 3.97808 34202 ft 453 kts 19°
2026-04-20 16:15 51.44055 4.02025 34200 ft 454 kts 22°
2026-04-20 16:16 51.49398 4.07587 34203 ft 462 kts 35°
2026-04-20 16:16 51.53994 4.14814 34205 ft 466 kts 42°
2026-04-20 16:17 51.58460 4.22389 34206 ft 466 kts 42°
2026-04-20 16:17 51.62915 4.29941 34207 ft 466 kts 42°
2026-04-20 16:18 51.67386 4.37542 34208 ft 466 kts 43°
2026-04-20 16:18 51.71824 4.45110 34209 ft 466 kts 43°
2026-04-20 16:19 51.76286 4.52744 34211 ft 466 kts 43°
2026-04-20 16:19 51.80707 4.60331 34216 ft 467 kts 43°
2026-04-20 16:20 51.85161 4.67998 34217 ft 467 kts 43°
2026-04-20 16:20 51.89623 4.75702 34211 ft 473 kts 44°
2026-04-20 16:21 51.94137 4.83517 34206 ft 482 kts 44°
2026-04-20 16:21 51.98667 4.91391 34206 ft 483 kts 44°
2026-04-20 16:22 52.03224 4.99338 34211 ft 483 kts 44°
2026-04-20 16:22 52.07802 5.07344 34209 ft 482 kts 44°
2026-04-20 16:23 52.12372 5.15361 34207 ft 482 kts 44°
2026-04-20 16:23 52.16908 5.23346 34211 ft 482 kts 45°
2026-04-20 16:24 52.21464 5.31391 34207 ft 482 kts 45°
2026-04-20 16:24 52.26005 5.39438 34207 ft 481 kts 45°
2026-04-20 16:25 52.30509 5.47443 34213 ft 481 kts 45°
2026-04-20 16:25 52.35038 5.55520 34210 ft 481 kts 45°
2026-04-20 16:26 52.39552 5.63596 34213 ft 481 kts 45°
2026-04-20 16:26 52.44058 5.71686 34211 ft 480 kts 45°
2026-04-20 16:27 52.48537 5.79752 34213 ft 480 kts 45°
2026-04-20 16:27 52.53039 5.87887 34212 ft 479 kts 46°
2026-04-20 16:28 52.57500 5.95973 34217 ft 479 kts 46°
2026-04-20 16:28 52.61981 6.04121 34223 ft 478 kts 46°
2026-04-20 16:29 52.66245 6.12462 34223 ft 479 kts 50°
2026-04-20 16:29 52.70232 6.21214 34226 ft 478 kts 51°
2026-04-20 16:30 52.74226 6.29994 34225 ft 478 kts 51°
2026-04-20 16:30 52.78222 6.38799 34227 ft 477 kts 51°
2026-04-20 16:31 52.82174 6.47539 34228 ft 477 kts 51°
2026-04-20 16:31 52.86150 6.56364 34230 ft 477 kts 52°
2026-04-20 16:32 52.90092 6.65146 34234 ft 477 kts 52°
2026-04-20 16:32 52.94050 6.73991 34233 ft 476 kts 52°
2026-04-20 16:33 52.97968 6.82781 34232 ft 476 kts 52°
2026-04-20 16:33 53.01910 6.91653 34233 ft 477 kts 52°
2026-04-20 16:34 53.05848 7.00544 34230 ft 477 kts 52°
2026-04-20 16:34 53.09756 7.09402 34225 ft 477 kts 52°
2026-04-20 16:35 53.13287 7.18787 34212 ft 479 kts 62°
2026-04-20 16:35 53.15734 7.29157 34215 ft 482 kts 71°
2026-04-20 16:36 53.17778 7.39718 34222 ft 481 kts 71°
2026-04-20 16:36 53.19841 7.50344 34209 ft 482 kts 71°
2026-04-20 16:37 53.21865 7.60820 33879 ft 463 kts 71°
2026-04-20 16:37 53.22845 7.65909 33300 ft 458 kts 71°
2026-04-20 16:37 53.23821 7.70979 32463 ft 457 kts 72°
2026-04-20 16:38 53.24791 7.76021 31451 ft 455 kts 72°
2026-04-20 16:38 53.25760 7.81074 30478 ft 452 kts 72°
2026-04-20 16:38 53.26709 7.86040 29589 ft 444 kts 72°
2026-04-20 16:38 53.27619 7.90847 28741 ft 435 kts 74°
2026-04-20 16:39 53.28138 7.95758 27938 ft 425 kts 88°
2026-04-20 16:39 53.28070 8.00654 27183 ft 417 kts 93°
2026-04-20 16:39 53.27902 8.05497 26460 ft 417 kts 93°
2026-04-20 16:39 53.27731 8.10354 25731 ft 417 kts 93°
2026-04-20 16:40 53.27563 8.15143 25028 ft 408 kts 93°
2026-04-20 16:40 53.27400 8.19826 24342 ft 400 kts 93°
2026-04-20 16:40 53.27242 8.24441 23691 ft 394 kts 93°
2026-04-20 16:40 53.27086 8.28953 22984 ft 392 kts 93°
2026-04-20 16:41 53.26923 8.33509 22294 ft 391 kts 93°
2026-04-20 16:41 53.26754 8.38041 21636 ft 391 kts 93°
2026-04-20 16:41 53.26626 8.42512 20982 ft 390 kts 89°
2026-04-20 16:41 53.26777 8.47022 20338 ft 387 kts 84°
2026-04-20 16:42 53.27049 8.51501 19706 ft 384 kts 83°
2026-04-20 16:42 53.27312 8.55935 19090 ft 382 kts 83°
2026-04-20 16:42 53.27561 8.60337 18482 ft 380 kts 83°
2026-04-20 16:42 53.27798 8.64670 17799 ft 377 kts 83°
2026-04-20 16:43 53.28031 8.69030 17119 ft 375 kts 83°
2026-04-20 16:43 53.28256 8.73366 16455 ft 373 kts 83°
2026-04-20 16:43 53.28475 8.77679 15793 ft 369 kts 83°
2026-04-20 16:43 53.28697 8.81901 15155 ft 360 kts 80°
2026-04-20 16:44 53.29111 8.85924 14542 ft 351 kts 78°
2026-04-20 16:44 53.29535 8.89903 14051 ft 340 kts 78°
2026-04-20 16:44 53.29944 8.93759 13373 ft 335 kts 77°
2026-04-20 16:44 53.30352 8.97571 12653 ft 331 kts 77°
2026-04-20 16:45 53.30755 9.01347 11890 ft 329 kts 77°
2026-04-20 16:45 53.31154 9.05087 11378 ft 323 kts 77°
2026-04-20 16:45 53.31544 9.08752 11131 ft 323 kts 77°
2026-04-20 16:45 53.31929 9.12410 11033 ft 311 kts 77°
2026-04-20 16:46 53.32293 9.15888 10892 ft 296 kts 77°
2026-04-20 16:46 53.32642 9.19221 10522 ft 287 kts 77°
2026-04-20 16:46 53.32985 9.22498 9988 ft 284 kts 77°
2026-04-20 16:46 53.33319 9.25690 9434 ft 281 kts 77°
2026-04-20 16:47 53.33655 9.28904 8836 ft 279 kts 77°
2026-04-20 16:47 53.33986 9.32073 8292 ft 276 kts 77°
2026-04-20 16:47 53.34313 9.35227 7707 ft 274 kts 77°
2026-04-20 16:47 53.34634 9.38349 7420 ft 270 kts 77°
2026-04-20 16:48 53.34975 9.41427 7045 ft 272 kts 71°
2026-04-20 16:48 53.35790 9.44193 6671 ft 263 kts 50°
2026-04-20 16:48 53.36974 9.46513 6290 ft 261 kts 45°
2026-04-20 16:48 53.38173 9.48799 5932 ft 263 kts 47°
2026-04-20 16:49 53.39350 9.51156 5568 ft 262 kts 47°
2026-04-20 16:49 53.40512 9.53487 5268 ft 257 kts 47°
2026-04-20 16:49 53.41656 9.55780 4899 ft 255 kts 47°
2026-04-20 16:49 53.42780 9.58029 4533 ft 253 kts 47°
2026-04-20 16:50 53.43910 9.60290 4153 ft 252 kts 47°
2026-04-20 16:50 53.45002 9.62493 3977 ft 238 kts 47°
2026-04-20 16:50 53.46048 9.64592 3659 ft 230 kts 47°
2026-04-20 16:50 53.46725 9.65950 3399 ft 227 kts 47°
2026-04-20 16:51 53.47867 9.67705 3001 ft 218 kts 22°
2026-04-20 16:51 53.49652 9.67842 3026 ft 184 kts 335°
2026-04-20 16:51 53.50506 9.66420 2995 ft 170 kts 294°
2026-04-20 16:51 53.50602 9.65147 3008 ft 170 kts 264°
2026-04-20 16:52 53.49983 9.63336 3013 ft 191 kts 220°
2026-04-20 16:52 53.48322 9.62706 3013 ft 192 kts 161°
2026-04-20 16:52 53.47555 9.63448 2995 ft 186 kts 124°
2026-04-20 16:52 53.47177 9.65395 3015 ft 176 kts 78°
2026-04-20 16:53 53.47526 9.67253 3012 ft 162 kts 54°
2026-04-20 16:53 53.48122 9.68732 3005 ft 150 kts 46°
2026-04-20 16:53 53.48838 9.70169 3006 ft 165 kts 44°
2026-04-20 16:53 53.49529 9.71566 3000 ft 144 kts 45°
2026-04-20 16:54 53.50140 9.72806 3014 ft 138 kts 45°
2026-04-20 16:54 53.50768 9.74070 2997 ft 141 kts 44°
2026-04-20 16:54 53.51428 9.75261 3009 ft 139 kts 26°
2026-04-20 16:54 53.52340 9.75409 3018 ft 143 kts 339°
2026-04-20 16:55 53.53249 9.74409 3008 ft 167 kts 320°
2026-04-20 16:55 53.54088 9.73078 3006 ft 164 kts 319°
2026-04-20 16:55 53.54802 9.71558 3004 ft 171 kts 291°
2026-04-20 16:55 53.54752 9.69454 3016 ft 198 kts 250°
2026-04-20 16:56 53.53888 9.67600 3007 ft 206 kts 225°
2026-04-20 16:56 53.52828 9.65957 3005 ft 206 kts 226°
2026-04-20 16:56 53.51778 9.64334 3003 ft 206 kts 226°
2026-04-20 16:56 53.50736 9.62741 3008 ft 204 kts 226°
2026-04-20 16:57 53.49676 9.61125 3004 ft 205 kts 226°
2026-04-20 16:57 53.48618 9.59519 3004 ft 204 kts 226°
2026-04-20 16:57 53.47557 9.57908 3000 ft 206 kts 226°
2026-04-20 16:57 53.46497 9.56313 3002 ft 205 kts 224°
2026-04-20 16:58 53.45215 9.55278 3009 ft 211 kts 188°
2026-04-20 16:58 53.43769 9.55712 3002 ft 213 kts 147°
2026-04-20 16:58 53.42908 9.57572 3015 ft 204 kts 97°
2026-04-20 16:58 53.43105 9.59771 2998 ft 190 kts 49°
2026-04-20 16:59 53.44059 9.61233 3008 ft 187 kts 33°
2026-04-20 16:59 53.45041 9.62669 2989 ft 187 kts 40°
2026-04-20 16:59 53.45917 9.64284 3007 ft 183 kts 45°
2026-04-20 16:59 53.46680 9.65851 3012 ft 166 kts 45°
2026-04-20 17:00 53.48176 9.68854 3014 ft 170 kts 45°
2026-04-20 17:00 53.48929 9.70372 3005 ft 169 kts 45°
2026-04-20 17:00 53.49684 9.71885 3009 ft 168 kts 45°
2026-04-20 17:01 53.50429 9.73396 3014 ft 169 kts 45°
2026-04-20 17:01 53.51181 9.74906 3015 ft 168 kts 45°
2026-04-20 17:01 53.51931 9.76405 3001 ft 168 kts 45°
2026-04-20 17:01 53.52682 9.77925 3010 ft 170 kts 45°
2026-04-20 17:02 53.53443 9.79458 2846 ft 171 kts 45°
2026-04-20 17:02 53.54193 9.80971 2596 ft 165 kts 45°
2026-04-20 17:02 53.54912 9.82416 2385 ft 156 kts 45°
2026-04-20 17:02 53.55583 9.83777 2163 ft 146 kts 45°
2026-04-20 17:03 53.56208 9.85038 1959 ft 138 kts 44°
2026-04-20 17:03 53.56831 9.86289 1773 ft 140 kts 44°
2026-04-20 17:03 53.57454 9.87550 1580 ft 141 kts 44°
2026-04-20 17:03 53.58076 9.88805 1390 ft 138 kts 45°
2026-04-20 17:04 53.58692 9.90045 1198 ft 141 kts 44°
2026-04-20 17:04 53.59308 9.91312 1004 ft 138 kts 46°
2026-04-20 17:04 53.59898 9.92538 783 ft 130 kts 46°
2026-04-20 17:04 53.60474 9.93672 552 ft 129 kts 47°
2026-04-20 17:05 53.61045 9.94814 380 ft 129 kts 48°
2026-04-20 17:05 53.61633 9.95986 208 ft 129 kts 49°
2026-04-20 17:05 53.62198 9.97134 59 ft 127 kts 49°
2026-04-20 17:05 53.62723 9.98157 43 ft 100 kts 48°
2026-04-20 17:06 53.63087 9.98922 46 ft 72 kts 50°
2026-04-20 17:06 53.63248 9.99257 47 ft 20 kts 56°
2026-04-20 17:06 53.63281 9.99359 46 ft 13 kts 71°
2026-04-20 17:06 53.63289 9.99532 48 ft 12 kts 98°
2026-04-20 17:07 53.63281 9.99616 48 ft 3 kts 99°
2026-04-20 17:07 53.63277 9.99658 48 ft 5 kts 99°
2026-04-20 17:07 53.63257 9.99725 48 ft 9 kts 131°
2026-04-20 17:07 53.63190 9.99788 48 ft 12 kts 153°
2026-04-20 17:08 53.63112 9.99855 48 ft 12 kts 152°
2026-04-20 17:08 53.63043 9.99915 48 ft 12 kts 153°
2026-04-20 17:08 53.62976 9.99973 48 ft 11 kts 153°
2026-04-20 17:08 53.62939 10.00081 48 ft 12 kts 108°
2026-04-20 17:09 53.62910 10.00163 48 ft 6 kts 122°
2026-04-20 17:09 53.62893 10.00208 48 ft 2 kts 121°
2026-04-20 17:09 53.62891 10.00216 46 ft 0 kts 121°